Location: Newark
(37.9128°N, 122.4756°W)
Time: 12:45:33
(UTC+00:00)

X-37B - Pass Details

Date: 11 March 2021
Orbit: 380 x 394 km, 45.0° (Epoch: 07 April)

Event Time Altitude Azimuth Distance (km) Brightness Sun altitude
Rises 03:50:39 0° 238° (WSW) 2,261 5.2 -20.0°
Reaches altitude 10° 03:52:43 10° 237° (WSW) 1,412 4.0 -20.4°
Enters shadow 03:55:11 50° 226° (SW) 501 1.2 -20.9°
